Zurück zum Katalog

STARLINK-5374

AktivKommunikationVLEO
NORAD 56144·PAYLOAD·🇺🇸 United States

Gestartet Mar 29, 2023 von Cape Canaveral Space Force Station

Loading…

Nächste Überflüge (nächste 24 Stunden)

TLE

AktuellSource: CelesTrak SupGP

Epoche: Sep 14, 2026, 21:14 UTC

1 56144C 23046BD  26257.88520833 -.00027996  00000+0 -10141-2 0  2574
2 56144  43.0007 158.3807 0001550 262.1243 205.1353 15.27587787    16

Verfolge STARLINK-5374 in Echtzeit mit AllMySat

Download on the App Store